TimeCET,TemperatureF,Dew PointF,Humidity,Sea Level PressureIn,VisibilityMPH,Wind Direction,Wind SpeedMPH,Gust SpeedMPH,PrecipitationIn,Events,Conditions,WindDirDegrees,DateUTC
12:20 AM,55.4,51.8,88,29.68,5.0,Variable,1.2,-,N/A,Rain,Light Rain,0,2012-11-27 23:20:00
12:50 AM,53.6,51.8,94,29.68,5.0,Variable,2.3,-,N/A,Rain,Light Rain,0,2012-11-27 23:50:00
1:20 AM,53.6,51.8,94,29.65,6.2,Variable,3.5,-,N/A,Rain,Light Rain,0,2012-11-28 00:20:00
1:50 AM,53.6,51.8,94,29.68,6.2,SE,4.6,-,N/A,,Mostly Cloudy,130,2012-11-28 00:50:00
2:20 AM,55.4,51.8,88,29.68,6.2,Variable,1.2,-,N/A,,Mostly Cloudy,0,2012-11-28 01:20:00
2:50 AM,53.6,51.8,94,29.65,6.2,East,5.8,-,N/A,Rain,Light Rain,100,2012-11-28 01:50:00
3:20 AM,53.6,51.8,94,29.65,6.2,East,6.9,-,N/A,Rain,Light Rain,90,2012-11-28 02:20:00
3:50 AM,53.6,51.8,94,29.62,6.2,ENE,5.8,-,N/A,Rain,Light Rain,70,2012-11-28 02:50:00
4:20 AM,55.4,51.8,88,29.59,6.2,ENE,6.9,-,N/A,Rain,Light Rain,70,2012-11-28 03:20:00
4:50 AM,55.4,51.8,88,29.59,6.2,East,8.1,-,N/A,,Mostly Cloudy,90,2012-11-28 03:50:00
5:50 AM,55.4,53.6,94,29.56,6.2,ESE,8.1,-,N/A,,Mostly Cloudy,110,2012-11-28 04:50:00
6:20 AM,57.2,55.4,94,29.56,6.2,SE,8.1,-,N/A,,Mostly Cloudy,130,2012-11-28 05:20:00
6:50 AM,57.2,53.6,88,29.56,6.2,SE,9.2,-,N/A,Rain,Light Rain,130,2012-11-28 05:50:00
7:20 AM,57.2,53.6,88,29.56,6.2,SE,6.9,-,N/A,Rain,Light Rain,130,2012-11-28 06:20:00
7:50 AM,57.2,55.4,94,29.56,6.2,ESE,9.2,-,N/A,Rain,Light Rain,120,2012-11-28 06:50:00
8:20 AM,57.2,55.4,94,29.56,6.2,East,9.2,-,N/A,Rain,Light Rain,100,2012-11-28 07:20:00
8:50 AM,57.2,53.6,88,29.56,6.2,East,9.2,-,N/A,,Mostly Cloudy,100,2012-11-28 07:50:00
9:20 AM,59.0,55.4,88,29.53,6.2,ESE,10.4,-,N/A,,Mostly Cloudy,110,2012-11-28 08:20:00
9:50 AM,59.0,55.4,88,29.53,6.2,East,8.1,-,N/A,,Mostly Cloudy,100,2012-11-28 08:50:00
10:20 AM,59.0,53.6,82,29.50,6.2,East,10.4,-,N/A,,Mostly Cloudy,100,2012-11-28 09:20:00
10:50 AM,60.8,53.6,77,29.50,6.2,ESE,10.4,-,N/A,,Mostly Cloudy,110,2012-11-28 09:50:00
11:20 AM,62.6,53.6,72,29.47,6.2,ESE,12.7,-,N/A,,Mostly Cloudy,120,2012-11-28 10:20:00
11:50 AM,62.6,53.6,72,29.47,6.2,ESE,11.5,-,N/A,,Mostly Cloudy,120,2012-11-28 10:50:00
12:20 PM,62.6,53.6,72,29.44,6.2,ESE,10.4,-,N/A,,Mostly Cloudy,120,2012-11-28 11:20:00
12:50 PM,62.6,53.6,72,29.44,6.2,ESE,9.2,-,N/A,,Mostly Cloudy,120,2012-11-28 11:50:00
1:20 PM,62.6,55.4,77,29.42,6.2,East,8.1,-,N/A,,Mostly Cloudy,100,2012-11-28 12:20:00
1:50 PM,62.6,53.6,72,29.39,6.2,East,5.8,-,N/A,,Mostly Cloudy,100,2012-11-28 12:50:00
2:20 PM,62.6,53.6,72,29.36,6.2,ESE,9.2,-,N/A,,Mostly Cloudy,110,2012-11-28 13:20:00
2:50 PM,62.6,53.6,72,29.33,6.2,ESE,6.9,-,N/A,,Mostly Cloudy,120,2012-11-28 13:50:00
3:20 PM,60.8,53.6,77,29.33,6.2,SE,12.7,-,N/A,Rain,Rain,130,2012-11-28 14:20:00
3:50 PM,59.0,53.6,82,29.33,5.0,ESE,8.1,-,N/A,Rain,Rain,120,2012-11-28 14:50:00
4:20 PM,57.2,55.4,94,29.30,3.7,ENE,5.8,-,N/A,Rain-Thunderstorm,Light Thunderstorms and Rain,70,2012-11-28 15:20:00
4:50 PM,57.2,51.8,82,29.30,3.7,ENE,5.8,-,N/A,Rain-Thunderstorm,Thunderstorms and Rain,70,2012-11-28 15:50:00
5:20 PM,55.4,51.8,88,29.30,3.1,North,4.6,-,N/A,Rain-Thunderstorm,Thunderstorms and Rain,10,2012-11-28 16:20:00
5:50 PM,55.4,53.6,94,29.27,3.1,NE,9.2,-,N/A,Rain-Thunderstorm,Thunderstorms and Rain,50,2012-11-28 16:50:00
6:20 PM,55.4,51.8,88,29.24,4.3,North,4.6,-,N/A,Rain-Thunderstorm,Thunderstorms and Rain,10,2012-11-28 17:20:00
6:50 PM,55.4,51.8,88,29.24,2.2,NNW,5.8,-,N/A,Rain-Thunderstorm,Thunderstorms and Rain,330,2012-11-28 17:50:00
7:20 PM,55.4,51.8,88,29.21,5.0,North,9.2,-,N/A,Rain-Thunderstorm,Light Thunderstorms and Rain,360,2012-11-28 18:20:00
7:50 PM,55.4,51.8,88,29.21,5.0,NNE,5.8,-,N/A,Rain-Thunderstorm,Light Thunderstorms and Rain,20,2012-11-28 18:50:00
8:20 PM,55.4,51.8,88,29.24,5.0,Variable,1.2,-,N/A,Rain-Thunderstorm,Light Thunderstorms and Rain,0,2012-11-28 19:20:00
8:50 PM,55.4,53.6,94,29.24,5.0,SE,5.8,-,N/A,Rain-Thunderstorm,Light Thunderstorms and Rain,130,2012-11-28 19:50:00
9:20 PM,55.4,53.6,94,29.27,6.2,ESE,6.9,-,N/A,,Scattered Clouds,110,2012-11-28 20:20:00
9:50 PM,55.4,51.8,88,29.27,6.2,ESE,8.1,-,N/A,,Mostly Cloudy,120,2012-11-28 20:50:00
10:20 PM,53.6,50.0,88,29.30,6.2,East,8.1,-,N/A,,Mostly Cloudy,90,2012-11-28 21:20:00
10:50 PM,53.6,48.2,82,29.30,6.2,East,4.6,-,N/A,,Mostly Cloudy,90,2012-11-28 21:50:00
11:20 PM,53.6,50.0,88,29.30,6.2,Variable,3.5,-,N/A,,Mostly Cloudy,0,2012-11-28 22:20:00
11:50 PM,53.6,50.0,88,29.30,6.2,East,8.1,-,N/A,,Mostly Cloudy,90,2012-11-28 22:50:00